www.pogodaiklimat.ru

Погода и климат >> Архив погоды >> Великобритания >> Sule Skerry


ПОГОДА в Sule Skerry

  • Прогноз погоды в Sule Skerry
  • Монитор погоды в Sule Skerry
  • Климат города

АРХИВ ПОГОДЫ в Sule Skerry

Время (UTC), дата Ветер
(напр.,м/с)
 
Видим.   Явления Облачность Т
(С)
Тd
(С)
f
(%)
Тe
(С)
Тes
(С)
Комфортность P
(гПа)
Po
(гПа)
Тmin
(С)
Tmax
(С)
R
(мм)
R24
(мм)
S
(см)
14 14.10 Ю 8 н/о н/о +10.6 +5.6 71 +7 +7 1006.3 1006.0
13 14.10 Ю 8 н/о н/о +10.7 +6.1 73 +7 +7 1005.9 1006.0
15 14.10 ЮЗ 9 н/о н/о +10.7 +5.5 70 +7 +7 1006.3 1006.0
16 14.10 З 6 н/о н/о +9.9 +5.6 75 +6 +6 1006.7 1007.0
17 14.10 Ю 8
{14}
н/о н/о +10.1 +5.3 72 +6 +6 1006.9 1007.0
18 14.10 ЮЗ 8 н/о н/о +9.6 +5.0 73 +6 +6 1007.7 1008.0
20 14.10 Ю 11
{14}
н/о н/о +10.3 +5.4 72 +6 +6 1008.3 1008.0
19 14.10 Ю 8 н/о н/о +10.2 +5.5 73 +6 +6 1007.7 1008.0
21 14.10 Ю 10
{15}
н/о н/о +9.9 +5.6 75 +5 +5 1008.9 1009.0
22 14.10 Ю 8
{13}
н/о н/о +10.4 +6.1 75 +7 +7 1008.7 1009.0
23 14.10 Ю 10 н/о н/о +10.7 +6.2 74 +7 +7 1008.9 1009.0
00 15.10 ЮЗ 10 н/о н/о +10.6 +5.9 73 +7 +7 1009.3 1009.0
02 15.10 Ю 11
{14}
н/о н/о +10.8 +6.1 73 +7 +7 1009.3 1009.0
01 15.10 ЮЗ 10
{13}
н/о н/о +10.7 +6.4 75 +7 +7 1009.1 1009.0
03 15.10 Ю 11
{14}
н/о н/о +11.1 +6.5 73 +7 +7 1009.3 1009.0
04 15.10 Ю 11
{16}
н/о н/о +11.0 +6.4 73 +7 +7 1008.9 1009.0
05 15.10 Ю 11
{16}
н/о н/о +11.0 +7.1 77 +7 +7 1009.3 1009.0
06 15.10 Ю 12
{16}
н/о н/о +11.0 +7.4 78 +7 +7 1009.7 1010.0
08 15.10 ЮЗ 10
{14}
н/о н/о +11.0 +8.0 82 +7 +7 1010.3 1010.0
07 15.10 ЮЗ 10
{14}
н/о н/о +11.0 +8.1 82 +7 +7 1009.9 1010.0
09 15.10 ЮЗ 9
{14}
н/о н/о +11.0 +8.1 82 +7 +7 1010.9 1011.0
10 15.10 ЮЗ 8
{13}
н/о н/о +11.4 +8.5 82 +8 +8 1011.1 1011.0
11 15.10 ЮЗ 9 н/о н/о +11.5 +8.6 82 +8 +8 1011.5 1012.0
12 15.10 ЮЗ 9 н/о н/о +11.8 +8.6 81 +8 +8 1011.7 1012.0
14 15.10 ЮЗ 7 н/о н/о +11.7 +8.8 82 +9 +9 1011.9 1012.0
13 15.10 ЮЗ 8 н/о н/о +11.7 +8.5 81 +8 +8 1011.7 1012.0
15 15.10 ЮЗ 7 н/о н/о +11.7 +7.7 76 +9 +9 1011.9 1012.0
16 15.10 ЮЗ 8 н/о н/о +11.6 +6.0 68 +8 +8 1011.9 1012.0
17 15.10 ЮЗ 6 н/о н/о +11.2 +6.1 71 +8 +8 1012.1 1012.0
18 15.10 ЮЗ 7 н/о н/о +11.6 +7.2 74 +9 +9 1012.5 1013.0
20 15.10 Ю 8 н/о н/о +11.7 +7.2 74 +8 +8 1012.3 1012.0
19 15.10 Ю 7 н/о н/о +11.5 +7.6 77 +8 +8 1012.5 1013.0
21 15.10 Ю 7 н/о н/о +11.5 +7.7 77 +8 +8 1011.9 1012.0
22 15.10 Ю 8 н/о н/о +11.4 +7.7 78 +8 +8 1011.3 1011.0
23 15.10 Ю 7 н/о н/о +11.3 +7.8 79 +8 +8 1010.7 1011.0
00 16.10 Ю 10 н/о н/о +11.2 +7.3 77 +7 +7 1009.9 1010.0
02 16.10 Ю 11
{14}
н/о н/о +11.2 +6.3 72 +7 +7 1008.3 1008.0
01 16.10 Ю 10 н/о н/о +11.4 +7.0 74 +8 +8 1009.1 1009.0
03 16.10 Ю 10
{15}
н/о н/о +10.7 +5.5 70 +7 +7 1007.9 1008.0
04 16.10 Ю 7 н/о н/о +9.9 +5.7 75 +6 +6 1006.1 1006.0
05 16.10 ЮВ 12
{14}
н/о н/о +11.1 +6.6 74 +7 +7 1004.6 1005.0
06 16.10 Ю 13
{16}
н/о н/о +10.9 +5.6 70 +6 +6 1003.6 1004.0
08 16.10 ЮВ 15
{19}
н/о н/о +11.2 +5.8 69 +6 +6 1002.0 1002.0
07 16.10 Ю 14
{18}
н/о н/о +11.0 +5.8 70 +6 +6 1003.2 1003.0
09 16.10 Ю 17
{21}
н/о н/о +10.5 +6.5 76 +5 +5 1001.0 1001.0
10 16.10 Ю 15
{21}
н/о н/о +11.0 +6.8 75 +6 +6 1000.4 1000.0
11 16.10 Ю 14
{19}
н/о н/о +11.4 +7.1 75 +7 +7 1000.0 1000.0
12 16.10 Ю 12
{19}
н/о н/о +12.0 +7.7 75 +8 +8 999.4 999.0
14 16.10 ЮЗ 14
{22}
н/о н/о +13.1 +9.3 78 +9 +9 999.4 999.0
13 16.10 Ю 12
{16}
н/о н/о +12.1 +7.5 73 +8 +8 999.4 999.0
15 16.10 Ю 14
{19}
н/о н/о +13.0 +9.3 78 +9 +9 999.2 999.0
16 16.10 Ю 14
{20}
н/о н/о +12.9 +9.2 78 +9 +9 999.0 999.0
17 16.10 ЮЗ 13
{19}
н/о н/о +12.4 +9.2 81 +8 +8 999.4 999.0
18 16.10 Ю 11
{17}
н/о н/о +12.2 +9.2 82 +8 +8 1000.4 1000.0
20 16.10 ЮЗ 9
{16}
н/о н/о +11.9 +8.4 79 +8 +8 1001.6 1002.0
19 16.10 Ю 12
{16}
н/о н/о +12.2 +9.6 84 +8 +8 1000.8 1001.0
21 16.10 ЮЗ 7
{14}
н/о н/о +11.6 +8.2 80 +8 +8 1002.0 1002.0
22 16.10 ЮЗ 8
{14}
н/о н/о +11.8 +8.9 82 +8 +8 1002.4 1002.0
23 16.10 ЮЗ 9
{14}
н/о н/о +11.8 +8.2 79 +8 +8 1002.8 1003.0
00 17.10 ЮЗ 10
{16}
н/о н/о +10.8 +8.0 83 +7 +7 1003.4 1003.0
02 17.10 ЮЗ 10
{14}
н/о н/о +10.7 +6.8 77 +7 +7 1004.7 1005.0
01 17.10 ЮЗ 9
{16}
н/о н/о +11.2 +8.0 81 +7 +7 1004.0 1004.0
03 17.10 ЮЗ 11
{17}
н/о н/о +10.3 +5.8 74 +6 +6 1005.1 1005.0
04 17.10 ЮЗ 12
{16}
н/о н/о +9.4 +5.2 75 +4 +4 1005.9 1006.0
05 17.10 ЮЗ 12
{16}
н/о н/о +9.8 +5.9 77 +5 +5 1006.7 1007.0
06 17.10 ЮЗ 11
{21}
н/о н/о +9.7 +6.0 78 +5 +5 1007.1 1007.0
08 17.10 З 12
{16}
н/о н/о +10.6 +5.5 71 +6 +6 1009.3 1009.0
07 17.10 З 12
{16}
н/о н/о +10.3 +5.1 70 +6 +6 1008.3 1008.0
09 17.10 З 12
{17}
н/о н/о +10.8 +5.6 70 +6 +6 1010.3 1010.0
10 17.10 З 12
{15}
н/о н/о +10.8 +5.5 70 +6 +6 1011.3 1011.0
11 17.10 З 11
{16}
н/о н/о +11.1 +5.7 69 +7 +7 1012.1 1012.0
12 17.10 З 11
{16}
н/о н/о +9.7 +5.5 75 +5 +5 1012.9 1013.0
14 17.10 З 11
{17}
н/о н/о +10.4 +5.3 71 +6 +6 1014.5 1015.0
13 17.10 З 12
{15}
н/о н/о +10.7 +5.5 70 +6 +6 1013.5 1014.0
15 17.10 З 11
{16}
н/о н/о +10.6 +6.0 73 +6 +6 1015.3 1015.0
16 17.10 З 10
{14}
н/о н/о +10.5 +5.3 70 +6 +6 1016.1 1016.0
17 17.10 З 11
{14}
н/о н/о +10.6 +4.6 66 +6 +6 1016.9 1017.0
18 17.10 З 10
{17}
н/о н/о +9.8 +4.5 70 +5 +5 1017.9 1018.0
20 17.10 З 11
{15}
н/о н/о +10.4 +5.1 70 +6 +6 1019.7 1020.0
19 17.10 З 11
{16}
н/о н/о +10.1 +5.7 74 +6 +6 1018.9 1019.0
21 17.10 З 11
{16}
н/о н/о +9.8 +5.0 72 +5 +5 1020.1 1020.0
22 17.10 З 11
{15}
н/о н/о +10.1 +5.0 71 +6 +6 1020.5 1021.0
23 17.10 З 11
{17}
н/о н/о +10.3 +4.2 66 +6 +6 1021.1 1021.0
00 18.10 З 11
{16}
н/о н/о +10.3 +4.0 65 +6 +6 1021.7 1022.0
02 18.10 З 9
{16}
н/о н/о +9.9 +5.6 75 +6 +6 1022.5 1023.0
01 18.10 З 10
{14}
н/о н/о +10.5 +5.1 69 +6 +6 1022.1 1022.0
03 18.10 З 10
{15}
н/о н/о +9.8 +4.8 71 +5 +5 1022.7 1023.0
04 18.10 З 10
{14}
н/о н/о +10.4 +5.4 71 +6 +6 1022.7 1023.0
05 18.10 З 11
{15}
н/о н/о +10.5 +5.3 70 +6 +6 1022.7 1023.0
06 18.10 З 7
{14}
н/о н/о +10.1 +6.2 77 +6 +6 1023.5 1024.0
08 18.10 З 8 н/о н/о +10.6 +5.8 72 +7 +7 1024.1 1024.0
07 18.10 З 9
{15}
н/о н/о +10.5 +5.8 73 +7 +7 1023.7 1024.0
09 18.10 ЮЗ 8 н/о н/о +10.5 +5.8 73 +7 +7 1024.1 1024.0
10 18.10 ЮЗ 8 н/о н/о +10.8 +6.2 73 +7 +7 1024.3 1024.0
11 18.10 ЮЗ 9 н/о н/о +11.0 +5.8 70 +7 +7 1024.3 1024.0
12 18.10 ЮЗ 8 н/о н/о +10.9 +5.9 71 +7 +7 1024.1 1024.0
14 18.10 ЮЗ 8 н/о н/о +11.0 +6.7 75 +7 +7 1023.3 1023.0
13 18.10 ЮЗ 8 н/о н/о +11.0 +5.8 70 +8 +8 1023.7 1024.0
15 18.10 ЮЗ 9 н/о н/о +11.1 +7.0 76 +7 +7 1023.1 1023.0
16 18.10 ЮЗ 7 н/о н/о +10.6 +7.5 81 +7 +7 1022.7 1023.0
17 18.10 ЮЗ 9
{13}
н/о н/о +10.6 +7.1 79 +7 +7 1022.7 1023.0
18 18.10 Ю 10 н/о н/о +10.8 +7.0 77 +7 +7 1022.3 1022.0
20 18.10 Ю 10
{14}
н/о н/о +10.8 +7.1 78 +7 +7 1021.5 1022.0
19 18.10 Ю 10
{13}
н/о н/о +11.0 +6.5 74 +7 +7 1021.9 1022.0
21 18.10 Ю 10
{14}
н/о н/о +10.7 +7.2 79 +6 +6 1020.9 1021.0
22 18.10 Ю 9
{13}
н/о н/о +11.0 +6.9 76 +7 +7 1020.1 1020.0
23 18.10 Ю 8
{14}
н/о н/о +11.1 +6.8 75 +8 +8 1019.3 1019.0
00 19.10 Ю 10 н/о н/о +10.8 +6.7 76 +7 +7 1018.5 1019.0
02 19.10 Ю 9 н/о н/о +10.5 +5.6 72 +7 +7 1016.9 1017.0
01 19.10 Ю 10 н/о н/о +10.5 +6.4 76 +6 +6 1017.5 1018.0
03 19.10 Ю 9 н/о н/о +10.8 +6.0 72 +7 +7 1015.9 1016.0
04 19.10 Ю 10
{14}
н/о н/о +11.1 +6.2 72 +7 +7 1014.9 1015.0
05 19.10 Ю 9
{14}
н/о н/о +10.2 +5.6 73 +6 +6 1013.9 1014.0
06 19.10 Ю 10
{13}
н/о н/о +10.5 +6.2 75 +6 +6 1013.1 1013.0
08 19.10 Ю 13
{18}
н/о н/о +11.1 +8.4 83 +7 +7 1012.3 1012.0
07 19.10 Ю 13
{16}
н/о н/о +10.5 +7.5 82 +6 +6 1012.5 1013.0
09 19.10 ЮЗ 11
{19}
н/о н/о +10.5 +8.2 86 +6 +6 1012.7 1013.0
10 19.10 З 8 н/о н/о +11.2 +9.1 87 +8 +8 1013.3 1013.0
11 19.10 З 9 н/о н/о +11.5 +8.4 81 +8 +8 1013.9 1014.0
12 19.10 З 8
{14}
н/о н/о +10.6 +8.3 86 +7 +7 1014.7 1015.0
14 19.10 З 10
{16}
н/о н/о +10.5 +7.1 79 +6 +6 1016.9 1017.0
13 19.10 З 10
{14}
н/о н/о +10.8 +7.4 80 +7 +7 1015.9 1016.0
15 19.10 З 10
{14}
н/о н/о +10.8 +6.3 74 +7 +7 1017.5 1018.0
16 19.10 З 10
{13}
н/о н/о +10.8 +6.3 74 +7 +7 1018.1 1018.0
17 19.10 З 10
{14}
н/о н/о +10.7 +6.0 73 +7 +7 1018.9 1019.0
18 19.10 З 9 н/о н/о +10.6 +5.9 73 +7 +7 1019.7 1020.0
20 19.10 З 6 н/о н/о +10.5 +7.0 79 +7 +7 1020.1 1020.0
19 19.10 З 8 н/о н/о +10.3 +6.7 78 +6 +6 1019.5 1020.0
21 19.10 З 8 н/о н/о +10.9 +6.5 74 +7 +7 1020.5 1021.0
22 19.10 ЮЗ 7 н/о н/о +11.0 +7.0 76 +8 +8 1021.1 1021.0
23 19.10 ЮЗ 8 н/о н/о +10.9 +7.0 77 +7 +7 1020.9 1021.0
00 20.10 ЮЗ 8 н/о н/о +10.9 +6.6 75 +7 +7 1020.5 1021.0
02 20.10 ЮЗ 9
{13}
н/о н/о +10.7 +7.0 78 +7 +7 1020.1 1020.0
01 20.10 ЮЗ 9 н/о н/о +10.7 +7.2 79 +7 +7 1020.3 1020.0
03 20.10 Ю 10
{13}
н/о н/о +10.8 +6.8 76 +7 +7 1019.5 1020.0
04 20.10 Ю 9
{13}
н/о н/о +11.1 +6.8 75 +7 +7 1018.5 1019.0
05 20.10 Ю 10 н/о н/о +10.5 +6.8 78 +6 +6 1017.9 1018.0
06 20.10 Ю 10 н/о н/о +10.6 +6.9 78 +6 +6 1016.5 1017.0
08 20.10 Ю 10
{13}
н/о н/о +12.7 +11.2 91 +9 +9 1016.5 1017.0
07 20.10 Ю 9 н/о н/о +10.9 +7.5 80 +7 +7 1016.5 1017.0
09 20.10 ЮЗ 10
{14}
н/о н/о +12.6 +11.3 92 +9 +9 1016.1 1016.0
10 20.10 ЮЗ 12
{16}
н/о н/о +12.8 +11.5 92 +9 +9 1015.7 1016.0
11 20.10 ЮЗ 11
{16}
н/о н/о +12.8 +11.4 91 +9 +9 1015.5 1016.0
12 20.10 ЮЗ 12
{16}
н/о н/о +12.7 +11.4 92 +9 +9 1015.3 1015.0
14 20.10 ЮЗ 13
{20}
н/о н/о +12.8 +11.6 92 +9 +9 1015.3 1015.0
13 20.10 ЮЗ 13
{18}
н/о н/о +12.8 +11.6 92 +9 +9 1014.5 1015.0
15 20.10 ЮЗ 12
{19}
н/о н/о +12.9 +11.8 93 +9 +9 1015.1 1015.0
16 20.10 ЮЗ 12
{17}
н/о н/о +12.5 +11.5 94 +9 +9 1015.3 1015.0
17 20.10 ЮЗ 10
{14}
н/о н/о +12.7 +11.8 94 +9 +9 1015.5 1016.0
18 20.10 ЮЗ 9
{14}
н/о н/о +12.6 +11.8 95 +9 +9 1015.5 1016.0
20 20.10 ЮЗ 9
{14}
н/о н/о +12.5 +11.7 95 +9 +9 1016.5 1017.0
19 20.10 ЮЗ 9
{13}
н/о н/о +12.5 +11.7 95 +9 +9 1016.1 1016.0
21 20.10 ЮЗ 8
{13}
н/о н/о +12.4 +11.7 95 +9 +9 1016.1 1016.0
22 20.10 З 10
{14}
н/о н/о +11.9 +11.2 95 +8 +8 1016.1 1016.0
23 20.10 З 11
{14}
н/о н/о +10.9 +10.0 94 +6 +6 1016.3 1016.0
00 21.10 З 10
{13}
н/о н/о +11.1 +10.1 94 +7 +7 1015.9 1016.0
02 21.10 З 11
{14}
н/о н/о +11.5 +9.9 90 +7 +7 1015.7 1016.0
01 21.10 З 9
{14}
н/о н/о +11.2 +10.2 94 +7 +7 1015.3 1015.0
03 21.10 З 10
{15}
н/о н/о +11.4 +9.0 85 +7 +7 1015.5 1016.0
04 21.10 З 10
{14}
н/о н/о +11.3 +9.1 86 +7 +7 1015.7 1016.0
05 21.10 ЮЗ 10
{15}
н/о н/о +10.5 +8.0 84 +6 +6 1015.1 1015.0
06 21.10 ЮЗ 10
{13}
н/о н/о +10.3 +7.9 85 +6 +6 1015.1 1015.0
08 21.10 ЮЗ 10
{16}
н/о н/о +10.6 +8.5 87 +6 +6 1015.3 1015.0
07 21.10 ЮЗ 11
{14}
н/о н/о +10.7 +8.4 86 +6 +6 1015.3 1015.0
09 21.10 ЮЗ 12
{16}
н/о н/о +11.0 +8.7 86 +7 +7 1014.9 1015.0
10 21.10 З 10
{19}
н/о н/о +10.0 +7.8 86 +5 +5 1015.3 1015.0
11 21.10 З 10
{16}
н/о н/о +9.8 +7.3 84 +5 +5 1016.1 1016.0
12 21.10 З 13
{16}
н/о н/о +9.8 +4.0 67 +5 +5 1016.7 1017.0

 

Местоположение метеостанции Sule Skerry (Великобритания): широта 59.08 долгота -4.40 высота над уровнем моря 12 м.

В архиве по умолчанию представлена погода в Sule Skerry за последнюю неделю. Архивные данные за месяц целиком и за предыдущие месяцы, начиная с января 2011 года, Вы можете получить, выбрав интересующий диапазон дат из раскрывающегося списка и нажав кнопку "Ввод!".


*Определитесь, кто Вы:
робот инопланетянин человек

Внимание! Время в таблицах - всемирное. Для получения местного времени необходимо прибавить поправку, которая в Sule Skerry равна 0 ч.

Смотрите также архив погоды в соседних городах и на ближайших метеорологических станциях:

Погода в Kirkwall (Великобритания) (87 км)
Погода в Altnaharra (Великобритания) (89 км)
Погода в Wick (Великобритания) (103 км)
Погода в Tain Range (Великобритания) (142 км)
Погода в Stornoway (Великобритания) (147 км)
Погода в Aultbea (Великобритания) (152 км)
Погода в Loch Glascarnoch (Великобритания) (154 км)
Погода в Lossiemouth (Великобритания) (164 км)
Погода в Fair Isle (Великобритания) (165 км)
Погода в Kinloss (Великобритания) (166 км)

Пояснения к столбцам:

Ветер - указаны скорость ветра в м/с - средняя за 10 мин, порывы в срок и между сроками (в фигурных скобках) и направление, откуда дует ветер: С - северный, СВ - северо-восточный, В - восточный, ЮВ - юго-восточный, Ю - южный, ЮЗ - юго-западный, З - западный, СЗ - северо-западный.
Видимость - горизонтальная дальность видимости в метрах или километрах. При видимости от 1 до 10 км при отсутствии осадков обычно наблюдается дымка, при ухудшении видимости до 1 км и менее - туман. В сухую погоду видимость может ухудшаться дымом, пылью или мглою.
Явления - указаны атмосферные явления, наблюдавшиеся в срок или в последний час перед сроком; фигурными скобками обозначены явления, наблюдавшиеся между сроками (за 1-3 часа до срока); квадратными скобками обозначены град или гололедные отложения с указанием их диаметра в мм.
Облачность - указаны через наклонную черту общая и нижняя облачность в баллах и высота нижней границы облаков в метрах; квадратными скобками обозначены формы облаков: Ci - перистые, Cs - перисто-слоистые, Cc - перисто-кучевые, Ac - высококучевые, As - высокослоистые, Sc - слоисто-кучевые, Ns - слоисто-дождевые, Cu - кучевые, Cb - кучево-дождевые. Подробнее классификацию облаков см. в Атласе облаков (PDF).
T - Температура воздуха - температура, измеренная на высоте 2 м над землей.
Td - Температура точки росы - температура, при понижении до которой содержащийся в воздухе водяной пар достигнет насыщения.
f - Относительная влажность воздуха - влажноcть воздуха, измеренная на высоте 2 м над землей.
Te - Эффективная температура - температура, которую ощущает одетый по сезону человек в тени. Характеристика душности погоды. При расчете учитывается влияние влажности воздуха и скорости ветра на теплоощущения человека.
Tes - Эффективная температура на солнце - температура, которую ощущает человек, с поправкой на солнечный нагрев. Характеристика знойности погоды. Зависит от высоты солнца над горизонтом, облачности и скорости ветра. Ночью, в пасмурную погоду, а также при ветре 12 м/с и более поправка равна нулю.
P - Атмосферное давление - приведенное к уровню моря атмосферное давление.
Po - Атмосферное давление - измеренное на уровне метеостанции атмосферное давление.
Tmin - Минимальная температура - минимум температуры воздуха на высоте 2 м над землей.
Tmax - Максимальная температура - максимум температуры воздуха на высоте 2 м над землей.
R - Количество осадков - Количество выпавших осадков за период времени, мм. При наведении курсора мыши на число - период времени, за который выпало указанное количество осадков.
R24 - Количество осадков - Количество выпавших осадков за 24 часа, мм.
S - Снежный покров - Высота снежного покрова, см. При наведении курсора мыши на число - состояние снежного покрова и степень покрытия местности в баллах.